Weather in Florencia

Colombia     1°36′47″N   75°36′25″W
temp.,
°C
wind,
m/s
gust,
m/s
humid.,
%
clouds,
%
prec.,
mm/h
press.,
hPa
HPBL,
m
12 may, wed
wed1201:00+21nne1195100 0.1 101316
04:00+20n119498 0.0 101320
07:00+21ne119198 0.1 101436
10:00+21nnw1194100 0.3 101636
13:00+23ssw018671 0.3 1013176
16:00+27sw12665 0.0 1010699
19:00+22n11905 0.0 101216
22:00+21n119075 0.1 101525
13 may, thu
thu1301:00+21ne0092100 0.4 101413
04:00+20wsw0196100 0.5 101323
07:00+21nw019678 0.6 101554
10:00+23wsw119175 0.0 1016186
13:00+28sw226222 0.1 10121144
16:00+28sw116410 0.3 1010967
19:00+22nne119432 0.9 101214
22:00+21nne119861 3.1 101419
14 may, fri
fri1401:00+21nw119889 4.1 101315
04:00+21nnw1198100 0.1 101216
07:00+21n1197100 0.2 101455
10:00+26ssw117645 0.4 1014568
13:00+27s118444 2.9 1011730
16:00+26ese0191100 6.0 1009198
19:00+22nne119799 7.5 101016
22:00+22nne1197100 0.0 101327
15 may, sat
sat1501:00+22ne019799 0.1 101215
04:00+21nw119897 0.1 101115
07:00+22wnw0098100 1.0 101341
10:00+25wsw118857 1.1 1014477
13:00+26ssw119183 4.8 1011575
16:00+25sw119425 5.5 1009330
19:00+22nw019889 10.6 101112
22:00+22nne0099100 1.8 101318
16 may, sun
sun1601:00+22nw12100100 6.9 101291
04:00+21n119992 0.6 101119
07:00+22nne0199100 3.2 101345
10:00+22s0198100 3.6 1015156
13:00+23s1198100 6.8 1013238
16:00+22sse1210094 11.3 1011177
19:00+22sw11100100 13.4 101465
22:00+22w00100100 0.8 101548